Regional Weather Roundup
Issued by NWS

Home | Current Version | Previous Version | Graphics & Text | Print | Product List | Glossary On
Versions: 1 2 3 4 5 6 7 8 9 10 11 12 13 14 15 16 17 18 19 20 21 22 23 24 25 26 27 28 29 30 31 32 33 34 35 36 37 38 39 40 41 42 43 44 45 46 47 48 49 50
000
ASUS43 KBIS 222110
RWRND

NORTH DAKOTA REGIONAL WEATHER ROUNDUP
NATIONAL WEATHER SERVICE BISMARCK ND
400 PM CDT SUN APR 22 2018

NOTE: "FAIR" INDICATES FEW OR NO CLOUDS BELOW 12,000 FEET WITH NO
SIGNIFICANT WEATHER AND/OR OBSTRUCTIONS TO VISIBILITY.


NDZ001>003-009>011-017-222200-
NORTHWEST NORTH DAKOTA

CITY           SKY/WX    TMP DP  RH WIND       PRES   REMARKS
WILLISTON      PTSUNNY   65  24  21 NW9       30.10F
MINOT          CLOUDY    62  27  26 SW6       30.10S
MINOT AFB      CLOUDY    63  29  28 SW9       30.08F
$$

NDZ018>021-031>035-040>046-222200-
SOUTHWEST NORTH DAKOTA

CITY           SKY/WX    TMP DP  RH WIND       PRES   REMARKS
BISMARCK       SUNNY     70  39  32 SW9G20    30.08F
DICKINSON      MOSUNNY   67  21  17 W5        30.08F
GARRISON         N/A     60  33  36 VRB3      30.11S
HETTINGER ARPT SUNNY     67  34  29 E6        30.09F
$$

NDZ004>008-012>016-024-026-027-054-222200-
NORTHEAST NORTH DAKOTA

CITY           SKY/WX    TMP DP  RH WIND       PRES   REMARKS
GRAND FORKS    FAIR      61  45  55 SW15G28   30.14F
GRND FRKS AFB  FAIR      63  43  49 S18       30.13F
DEVILS LAKE    PTSUNNY   61  41  47 SW12      30.11F
$$

NDZ022-023-025-028>030-036>039-047>053-222200-
SOUTHEAST NORTH DAKOTA

CITY           SKY/WX    TMP DP  RH WIND       PRES   REMARKS
FARGO          PTSUNNY   65  37  35 SW16G28   30.17F
JAMESTOWN      SUNNY     64  38  38 S17G29    30.13F
$$




USA.gov is the U.S. government's official web portal to all federal, state and local government web resources and services.